sat.trackr.live / text

‹ back to catalog

STARLINK-2213

NORAD 47780 · 2021-017BL

PAYLOAD ACTIVE UNKNOWN

§ Identity

Operator
Country
US
Launch date
2021-03-04
Launch site
AFETR
Launch vehicle
Mass (kg)
RCS (m²)

Purposes: comms

External: N2YO · Heavens-Above · Gunter

§ Orbital elements

Epoch: 2026-09-11T18:45:40.049856Z

Period
94.01 min
Inclination
53.1595°
Eccentricity
0.0001153
Mean motion
15.31708472 rev/d
Perigee alt
469.9 km
Apogee alt
471.5 km
Semi-major
6,848.9 km
B*
-2.1630e-6
RAAN
57.8074°
Arg perigee
86.4585°
Mean anomaly
273.6548°
Rev number
30,641

§ Raw data

STARLINK-22131 47780U 21017BL  26254.78171354 -.00000432  00000+0 -21630-5 0  99992 47780  53.1595  57.8074 0001153  86.4585 273.6548 15.31708472306410

JSON: /api/v1/satellites/47780 · /tle

For live sub-satellite position, see the globe view (requires WebGL).

§ Visibility from observer

Set your observer location to see the next 7 days of passes ≥ 10°. The values pass through the URL so the page stays shareable.

No JS? Fill the form by hand. The geolocation button needs JavaScript.